DW8795 Weather Reports


time (UTC)temp
F
wind
direction
speed
knots
gust
knots
rain 1hr
in
rain 24hr
in
rain mn
in
humidity
%
barometer
mb
20260507060011 53 340 0.9 3.5 0.03 0.24 0.09 100 1011.5
20260507054512 53 343 0.0 1.7 0.09 0.24 0.09 100 1011.4
20260507053012 53 12 0.0 1.7 0.08 0.23 0.08 3 1011.4
20260507051514 53 344 0.0 2.6 0.07 0.22 0.07 9 1011.3
20260507050012 54 328 0.9 3.5 0.06 0.21 0.06 41 1011.4
20260507044509 57 332 0.0 3.5 0.00 0.15 0.00 71 1011.0
20260507043014 57 330 1.7 2.6 0.00 0.15 0.00 64 1011.3
20260507041532 58 330 0.9 2.6 0.00 0.15 0.00 69 1010.8
20260507040016 58 348 1.7 3.5 0.00 0.15 0.00 74 1010.7
20260507034518 59 338 1.7 4.3 0.00 0.15 0.15 75 1011.0
20260507033014 60 8 1.7 4.3 0.00 0.15 0.15 73 1010.6
20260507031516 60 335 1.7 5.2 0.00 0.15 0.15 71 1010.4
20260507030020 61 15 3.5 4.3 0.00 0.15 0.15 52 1010.4
20260507024520 61 340 0.9 2.6 0.00 0.15 0.15 29 1010.1
20260507023006 61 344 0.0 0.9 0.00 0.15 0.15 20 1010.2
20260507021514 61 349 1.7 2.6 0.01 0.15 0.15 3 1010.0
20260507020018 62 146 0.0 0.0 0.01 0.15 0.15 100 1010.0
20260507014537 62 145 0.0 0.0 0.01 0.15 0.15 100 1010.0
20260507013034 62 146 0.0 0.9 0.01 0.15 0.15 2 1010.2
20260507011518 62 115 0.0 0.0 0.00 0.14 0.14 36 1010.0
20260507010013 63 115 0.0 0.0 0.00 0.14 0.14 49 1009.9
20260507004518 63 115 0.0 0.0 0.00 0.14 0.14 55 1009.7
20260507003020 64 116 0.0 1.7 0.00 0.14 0.14 58 1009.5
20260507001522 64 119 0.0 0.9 0.00 0.14 0.14 58 1009.6
20260507000029 64 133 0.0 0.9 0.00 0.14 0.14 62 1009.2
20260506234514 65 133 0.0 0.0 0.00 0.14 0.14 70 1009.1
20260506233022 65 131 0.0 0.0 0.00 0.14 0.14 73 1008.9
20260506231523 66 129 0.0 0.0 0.00 0.14 0.14 75 1008.9
20260506230023 66 128 0.0 0.9 0.00 0.14 0.14 77 1009.0
20260506224512 66 123 0.0 0.0 0.00 0.14 0.14 78 1008.9
20260506223015 67 130 0.0 0.0 0.00 0.14 0.14 79 1009.0
20260506221521 67 124 0.0 0.9 0.00 0.14 0.14 79 1008.9
20260506220024 67 129 0.0 1.7 0.00 0.14 0.14 79 1009.0
20260506214527 67 150 0.9 2.6 0.00 0.14 0.14 80 1008.7
20260506213024 67 141 0.9 2.6 0.00 0.14 0.14 80 1008.6
20260506211519 68 129 2.6 4.3 0.00 0.14 0.14 79 1008.6
20260506210026 69 319 0.0 5.2 0.00 0.14 0.14 78 1008.4
20260506204526 69 167 0.0 4.3 0.00 0.14 0.14 78 1008.6
20260506203012 70 153 0.9 4.3 0.00 0.14 0.14 76 1008.3
20260506201513 70 125 0.0 4.3 0.00 0.14 0.14 77 1008.4
20260506200019 70 309 0.9 6.1 0.00 0.14 0.14 78 1008.3
20260506194503 69 191 0.9 3.5 0.00 0.14 0.14 79 1008.5
20260506193006 68 167 1.7 5.2 0.00 0.14 0.14 78 1008.5
20260506191517 67 113 0.0 4.3 0.00 0.14 0.14 75 1008.9
20260506190015 65 354 0.0 2.6 0.00 0.14 0.14 71 1009.1
20260506184520 64 115 0.0 3.5 0.00 0.14 0.14 66 1009.1
20260506183006 63 155 0.0 2.6 0.00 0.14 0.14 57 1009.2
20260506181532 63 159 0.0 3.5 0.00 0.14 0.14 46 1009.4
20260506180024 62 205 0.0 3.5 0.00 0.14 0.14 26 1009.4
20260506174519 61 128 0.0 3.5 0.00 0.14 0.14 9 1009.5
20260506173022 60 177 0.0 1.7 0.00 0.14 0.14 100 1009.4
20260506171507 60 252 0.0 4.3 0.00 0.14 0.14 100 1009.5
20260506170013 59 124 0.0 4.3 0.00 0.14 0.14 100 1009.6
20260506164516 59 200 0.9 3.5 0.00 0.14 0.14 100 1009.7
20260506163022 59 110 0.9 5.2 0.00 0.14 0.14 100 1009.8
20260506161536 59 195 0.0 6.1 0.02 0.14 0.14 100 1009.9
20260506160026 59 138 1.7 6.1 0.04 0.14 0.14 100 1010.0
20260506154512 59 159 0.9 5.2 0.05 0.14 0.14 100 1010.0
20260506153026 59 127 0.0 3.5 0.06 0.14 0.14 100 1010.5
20260506151522 59 214 0.9 5.2 0.06 0.12 0.12 100 1010.8
20260506150027 59 333 0.0 1.7 0.06 0.10 0.10 100 1010.9
20260506144527 59 119 0.0 3.5 0.07 0.09 0.09 4 1010.6
20260506143015 59 133 0.9 2.6 0.07 0.08 0.08 12 1010.5
20260506141528 59 120 0.9 2.6 0.06 0.06 0.06 28 1010.8
20260506140022 60 97 0.0 0.9 0.04 0.04 0.04 47 1011.2
20260506134600 60 135 0.9 4.3 0.02 0.02 0.02 61 1010.8
20260506133012 61 155 0.0 1.7 0.01 0.01 0.01 69 1011.0
20260506131515 62 136 0.0 3.5 0.00 0.00 0.00 73 1010.5
20260506130028 62 156 0.0 3.5 0.00 0.00 0.00 74 1010.6
20260506124505 62 158 0.0 3.5 0.00 0.00 0.00 78 1010.8
20260506123006 62 113 0.0 1.7 0.00 0.00 0.00 80 1011.0
20260506121525 63 141 0.0 2.6 0.00 0.00 0.00 81 1011.0
20260506120016 63 344 0.0 3.5 0.00 0.00 0.00 81 1011.0
20260506114504 63 127 0.9 6.1 0.00 0.00 0.00 81 1010.7
20260506113006 63 210 0.9 5.2 0.00 0.00 0.00 80 1010.5
20260506111508 62 211 0.0 6.1 0.00 0.00 0.00 80 1010.4
20260506110017 62 204 0.0 5.2 0.00 0.00 0.00 80 1010.3
20260506104520 62 269 0.0 5.2 0.00 0.00 0.00 80 1010.3
20260506103027 62 119 0.9 4.3 0.00 0.00 0.00 80 1010.1
20260506101507 62 169 0.9 6.1 0.00 0.00 0.00 80 1010.2
20260506100010 62 151 0.9 5.2 0.00 0.00 0.00 80 1010.2
20260506094517 62 321 1.7 5.2 0.00 0.00 0.00 81 1010.1
20260506093020 62 126 0.9 5.2 0.00 0.00 0.00 81 1010.1
20260506091526 62 156 0.9 4.3 0.00 0.00 0.00 81 1010.1
20260506090008 62 146 0.9 2.6 0.00 0.00 0.00 81 1010.3
20260506084512 63 110 0.9 5.2 0.00 0.00 0.00 81 1010.3
20260506083019 63 149 0.9 7.0 0.00 0.00 0.00 80 1010.1
20260506081528 64 148 0.0 3.5 0.00 0.00 0.00 80 1010.1
20260506073015 65 107 0.9 5.2 0.00 0.00 0.00 78 1010.4
20260506071521 65 103 0.0 5.2 0.00 0.00 0.00 78 1010.5
20260506061530 64 139 0.9 4.3 0.00 0.00 0.00 78 1010.8